Location: ??
(34.7707°N, 135.6540°E)
Time: 18:43:52
(UTC+00:00)

Cosmos 1025 Rocket - Pass Details

Date: 09 April 2020
Orbit: 594 x 618 km, 82.5° (Epoch: 05 June)

Event Time Altitude Azimuth Distance (km) Brightness Sun altitude
Rises 19:58:56 0° 172° (S) 2,874 6.4 -7.5°
Reaches altitude 10° 20:01:13 10° 166° (SSE) 1,973 5.6 -7.1°
Maximum altitude 20:05:25 47° 93° (E) 814 4.3 -6.2°
Drops below altitude 10° 20:09:37 10° 19° (NNE) 1,978 6.1 -5.4°
Sets 20:11:54 0° 14° (NNE) 2,884 6.9 -4.9°
